Location: Albany
(35.0000°S, 118.0000°E)
Time: 03:50:03
(UTC-04:00)

SJ-6B - Visible Passes

Search period start: 31 May 2016 00:00
Search period end: 10 June 2016 00:00
Orbit: 513 x 585 km, 97.8° (Epoch: 30 May)

Date Brightness Start Highest point End Pass type
(mag) Time Alt. Az. Time Alt. Az. Time Alt. Az.
31 May 3.3 18:27:00 10° NNE 18:31:05 68° ESE 18:35:08 10° S visible
01 Jun 3.5 18:22:33 10° NNE 18:26:35 59° ESE 18:30:35 10° S visible
02 Jun 3.8 18:18:07 10° NNE 18:22:05 51° ESE 18:26:01 10° S visible
03 Jun 4.1 18:13:42 10° NNE 18:17:35 44° ESE 18:21:27 10° S visible
04 Jun 4.3 18:09:18 10° NE 18:13:05 39° ESE 18:16:51 10° S visible
05 Jun 4.6 18:04:56 10° NE 18:08:36 34° ESE 18:12:14 10° S visible
06 Jun 4.8 18:00:34 10° NE 18:04:07 30° ESE 18:07:37 10° S visible
07 Jun 5.0 17:56:14 10° NE 17:59:37 26° ESE 18:02:58 10° SSE visible
08 Jun 5.2 17:51:55 10° NE 17:55:07 23° ESE 17:58:18 10° SSE visible
09 Jun 5.4 17:47:39 10° ENE 17:50:38 20° ESE 17:53:36 10° SSE visible
